EHI
2 3 4 5 7 10 11 11 10 6 2 1 1 1 1 0 1 2 2 2 2 1 0 0 0 0 0 0 0 0 0 0 0 0 0 1 2 2 1 0 0 0 0
2 2 3 4 6 9 11 12 11 8 5 2 1 0 0 0 1 1 2 3 2 1 0 0 0 0 0 0 0 0 0 0 0 0 0 0 1 1 1 1 0 0 0
2 2 2 4 6 7 9 10 10 10 8 5 3 1 0 0 0 1 2 3 2 0 0 0 0 0 0 0 0 0 0 0 0 0 0 0 0 0 1 1 0 0 0
2 2 4 6 6 6 7 8 8 8 8 7 5 4 1 0 1 1 2 2 1 0 0 0 0 0 0 0 0 0 0 0 0 0 0 0 0 0 1 1 0 0 0
2 3 5 6 6 5 6 6 6 6 6 6 5 4 2 2 3 4 2 1 1 1 1 1 1 1 0 0 0 0 0 0 0 0 0 0 0 0 0 0 0 0 0
1 1 3 5 5 4 4 3 4 4 4 4 4 3 3 3 4 5 3 2 2 2 2 2 2 1 1 0 0 0 0 0 0 0 0 0 0 0 1 1 1 0 0
1 0 1 3 3 2 2 2 2 3 3 2 2 2 2 2 3 4 3 1 1 1 1 1 1 1 1 0 0 0 0 0 0 0 0 0 0 0 1 2 2 1 0
1 0 0 1 2 2 2 2 2 2 2 2 2 2 1 2 2 2 1 0 0 0 0 0 0 0 0 0 0 0 0 0 0 0 0 0 0 0 1 2 2 1 1
0 0 0 0 1 1 1 1 1 1 1 2 2 1 1 1 1 1 1 0 0 0 0 0 0 0 0 0 0 0 0 0 0 0 0 0 0 0 0 1 1 1 0
1 1 0 0 0 0 0 0 0 0 0 1 1 1 0 0 0 1 1 0 0 0 0 0 0 0 0 0 0 0 0 0 0 0 0 0 0 0 0 0 0 0 0
2 1 0 0 0 0 0 0 0 0 0 0 0 0 0 0 0 0 0 0 0 0 0 0 0 0 0 0 0 0 0 0 0 0 0 0 0 0 0 0 0 0 0
1 1 0 0 0 0 0 0 0 0 0 0 0 0 0 0 0 0 0 0 0 0 0 0 0 0 0 0 0 0 0 0 0 0 0 0 0 0 0 0 0 0 0
0 0 0 0 0 0 0 0 0 0 0 0 0 0 0 0 0 0 0 0 0 0 0 0 0 0 0 0 0 0 0 0 0 0 0 0 0 0 0 0 0 0 0
0 0 0 0 0 0 0 0 0 0 0 0 0 0 0 0 0 0 0 0 0 0 0 0 0 0 0 0 0 0 0 0 0 0 0 0 0 0 0 0 0 0 0
0 0 0 0 0 0 0 0 0 0 0 0 0 0 0 0 0 0 0 0 0 0 0 0 0 0 0 0 0 0 0 0 0 0 0 0 0 0 0 0 0 0 0
0 0 0 0 0 0 0 0 0 0 0 0 0 0 0 0 0 0 0 0 0 0 0 0 0 0 0 0 0 0 0 0 0 0 0 0 0 0 0 0 0 0 0
0 0 0 0 0 0 0 0 0 0 0 0 0 0 0 0 0 0 0 0 0 0 0 0 0 0 0 0 0 0 0 0 0 0 0 0 0 0 0 0 0 0 0
0 0 0 0 0 0 0 0 0 0 0 0 0 0 0 0 0 0 0 0 0 0 0 0 0 0 0 0 0 0 0 0 0 0 0 0 0 0 0 0 0 0 0
0 0 0 0 0 0 0 0 0 0 0 0 0 0 0 0 0 0 0 0 0 0 0 0 0 0 0 0 0 0 0 0 0 0 0 0 0 0 0 0 0 0 0
0 0 0 0 0 0 1 1 1 0 0 0 0 0 0 0 0 0 0 0 0 0 0 0 0 0 0 0 0 0 0 0 0 0 0 0 0 0 0 0 0 0 0
0 0 0 0 0 0 1 2 2 1 1 0 0 0 0 0 0 0 0 0 0 0 0 0 0 0 0 0 0 0 0 0 0 0 0 0 0 0 0 0 0 0 0
0 0 0 0 0 0 0 1 2 2 2 1 0 0 0 0 0 0 0 0 0 0 0 0 0 0 0 0 0 0 0 0 0 0 0 0 0 0 0 0 0 0 0
0 0 0 0 0 0 0 0 1 1 1 1 0 0 0 0 0 0 0 0 0 0 0 0 0 0 0 0 0 0 0 0 0 0 0 0 0 0 0 0 0 0 0
0 0 0 0 0 0 0 0 0 0 0 0 0 0 0 0 0 0 0 0 0 0 0 0 0 0 0 0 0 0 0 0 0 0 0 0 0 0 0 0 0 0 0
0 0 0 0 0 0 0 0 0 0 0 0 0 0 0 0 0 0 0 0 0 0 0 0 0 0 0 0 0 0 0 0 0 0 0 0 0 0 0 0 0 0 0
0 0 0 0 0 0 0 0 0 0 0 0 0 0 0 0 0 0 0 0 0 0 0 0 0 0 0 0 0 0 0 0 0 0 0 0 0 0 0 0 0 0 0
Wind_Speed
4 4 5 5 5 6 6 6 6 6 6 6 5 6 6 7 8 8 9 9 9 9 10 10 10 10 11 11 11 11 11 11 11 11 12 12 12 12 11 11 11 8 13
4 4 5 5 6 6 6 6 6 5 6 6 5 5 6 7 7 8 8 8 8 9 9 9 9 10 10 10 10 10 10 10 10 10 10 10 11 11 11 11 11 8 12
5 5 5 7 6 6 6 6 6 6 5 5 5 5 6 6 7 7 8 8 8 8 8 9 9 9 10 10 10 9 9 8 8 7 7 5 7 10 11 11 12 12 12
5 5 6 7 7 6 6 6 6 6 6 5 5 5 5 6 6 7 7 7 7 7 8 8 8 8 9 9 9 8 7 5 5 4 3 5 5 9 10 10 10 10 10
6 6 7 8 7 7 7 6 6 6 5 5 5 5 5 5 6 6 6 7 7 7 7 7 7 8 9 8 8 7 5 4 3 1 3 4 4 8 9 9 9 9 9
6 6 7 9 8 8 7 7 6 6 5 5 5 4 5 6 6 5 6 6 6 6 7 7 7 7 8 7 7 5 4 2 1 1 3 4 4 7 8 8 8 8 8
5 6 6 9 9 8 8 7 7 6 5 5 5 5 5 5 5 5 5 5 5 6 7 7 6 7 7 6 5 4 3 2 1 2 4 4 5 7 7 8 8 7 7
5 6 5 7 8 8 8 8 7 7 6 5 4 4 4 4 5 5 5 5 5 6 6 6 6 6 6 5 4 3 2 2 1 3 4 4 6 6 7 7 7 7 6
6 5 4 4 5 6 8 8 8 7 7 6 4 4 3 3 3 4 4 5 5 5 5 6 6 6 5 4 4 3 2 2 2 2 4 3 5 6 6 6 6 6 6
5 4 4 3 3 3 3 6 7 7 6 5 5 4 2 2 3 3 3 4 5 5 5 5 5 5 4 4 3 2 1 1 1 3 3 3 6 6 6 5 5 5 5
4 4 3 3 2 2 2 4 4 5 5 4 4 3 1 1 1 2 3 4 4 5 4 5 5 4 4 3 3 1 0 0 2 2 2 4 5 5 5 4 4 4 4
3 3 3 2 2 2 2 2 1 2 2 3 3 2 1 1 1 2 2 3 3 4 4 4 4 3 2 1 1 1 0 0 2 3 3 6 5 4 4 4 3 4 4
2 2 2 2 2 2 2 2 1 1 2 2 3 4 2 1 1 2 1 1 2 2 2 2 2 1 1 1 1 1 1 1 1 2 3 6 5 4 3 4 3 3 3
2 2 2 2 2 2 2 1 2 1 1 1 2 3 2 2 2 2 1 0 1 1 1 1 1 1 1 2 2 1 1 1 1 2 3 6 4 3 3 3 3 3 4
2 2 2 2 2 2 2 1 2 1 1 2 2 2 3 2 2 2 1 1 1 0 1 1 1 1 1 2 2 1 1 1 2 2 3 5 4 3 2 2 2 3 3
3 2 2 2 2 2 2 1 1 1 2 2 2 2 3 2 2 2 2 2 1 1 0 1 1 1 1 1 2 1 1 1 1 2 3 3 4 3 2 2 2 2 2
2 2 2 2 2 2 2 2 2 2 2 2 2 2 3 3 2 2 1 1 2 1 1 0 1 1 1 1 1 1 1 1 1 2 2 2 2 2 2 2 2 2 1
2 2 3 2 3 2 2 1 2 2 2 1 1 2 2 3 3 2 2 2 2 1 1 1 0 1 1 1 1 0 1 1 1 1 2 2 2 1 1 2 1 1 1
3 3 3 3 3 2 1 1 2 1 2 1 1 1 2 2 2 2 2 2 2 2 1 1 1 1 1 1 1 1 1 1 1 1 1 2 2 2 1 1 1 1 1
3 3 3 3 3 2 1 1 1 2 1 1 1 2 2 2 2 2 1 2 2 2 2 2 2 1 1 1 1 0 1 1 1 1 1 1 1 2 2 1 1 0 2
3 4 3 3 2 1 1 1 1 1 1 1 1 2 2 2 2 2 1 1 1 1 1 1 1 1 1 1 1 0 0 1 1 1 1 1 1 1 1 1 1 1 1
3 3 3 3 2 2 1 1 0 0 0 0 1 1 2 2 1 1 1 1 1 1 1 1 1 0 0 1 1 1 0 1 1 1 1 1 1 1 1 1 1 1 0
3 2 2 2 2 2 1 1 0 0 0 1 1 0 1 1 1 1 0 0 0 1 1 1 0 0 0 0 1 2 1 1 0 1 1 1 1 1 1 1 1 1 1
2 2 2 2 2 2 1 1 1 0 0 0 1 0 0 0 0 0 0 0 0 0 1 1 1 0 1 1 0 0 1 1 1 1 1 1 1 1 1 1 2 2 1
2 2 2 2 1 1 1 1 0 0 0 0 0 0 0 0 0 0 0 0 0 0 1 1 1 1 1 1 1 0 0 0 0 1 1 1 2 2 2 2 2 2 2
2 2 1 1 1 1 1 1 1 1 0 0 0 0 1 0 0 0 0 1 1 1 1 1 2 1 1 1 1 1 1 1 1 1 1 2 2 2 2 2 2 2 2
Wind_Direction
66 77 65 60 69 66 65 77 88 90 98 102 105 105 105 103 102 101 100 99 98 99 101 100 97 93 92 88 85 85 86 86 87 86 86 86 85 85 83 81 81 78 83
76 82 71 62 72 70 65 67 78 84 93 102 109 109 109 108 107 106 105 104 103 102 102 103 100 96 96 92 89 89 90 91 90 89 87 85 85 84 81 76 80 83 84
70 82 71 62 64 69 69 68 72 79 86 95 105 110 111 110 108 106 104 105 106 106 104 103 102 98 96 94 92 90 92 95 95 92 90 88 86 87 84 83 85 84 84
64 75 62 60 61 66 71 72 75 76 77 83 92 99 107 109 107 106 104 103 103 105 106 104 104 101 98 98 99 97 96 94 90 89 93 93 92 93 91 90 88 87 85
62 65 63 60 63 63 65 65 65 71 73 75 87 95 101 104 108 109 106 104 103 105 107 105 106 106 103 102 104 105 99 85 76 74 83 92 90 101 99 96 94 91 86
63 66 67 63 64 63 61 60 57 63 69 72 78 96 107 105 101 102 101 102 104 102 103 103 105 109 109 109 108 108 102 69 64 73 77 86 90 104 103 101 99 96 92
62 66 72 66 62 61 61 60 58 57 62 69 70 76 96 107 105 97 97 104 106 109 107 106 108 109 111 112 113 107 99 44 82 76 78 80 90 99 104 105 104 100 95
67 67 68 64 61 58 57 58 59 55 55 60 66 74 87 96 111 110 105 107 107 106 112 111 113 112 108 111 113 108 77 50 71 89 81 85 100 103 105 104 104 101 97
68 65 59 54 59 59 55 53 54 52 52 48 49 64 89 96 102 117 112 110 113 111 109 114 114 118 119 115 113 107 74 25 351 73 89 89 103 107 108 106 102 100 97
66 67 63 55 52 65 67 55 49 48 45 45 39 33 59 104 112 114 117 110 116 119 114 115 114 124 128 129 127 118 70 352 43 69 76 98 108 111 112 112 109 105 103
56 56 59 54 49 55 73 61 48 44 40 41 38 22 36 112 110 110 113 110 117 124 124 123 121 120 125 137 149 135 77 151 92 83 74 93 103 110 112 118 117 111 108
52 52 50 43 36 47 61 73 47 48 39 34 37 23 13 37 59 78 106 118 121 118 130 133 130 128 129 141 159 127 134 116 101 92 85 93 99 102 102 104 110 107 101
74 58 50 43 41 49 57 67 50 44 36 32 42 37 20 28 47 63 84 116 138 138 146 145 145 152 139 124 128 139 83 74 84 92 94 97 96 95 97 98 94 98 100
65 66 61 43 48 46 57 63 62 55 35 46 45 50 38 27 38 42 34 32 142 147 157 157 147 145 143 125 131 138 110 89 85 97 107 101 92 93 91 94 101 102 94
61 69 79 61 52 49 51 49 60 49 52 60 53 47 45 37 28 40 32 12 13 88 144 155 151 158 148 138 144 142 127 102 103 103 112 107 102 95 92 91 99 107 100
52 63 72 71 62 60 60 59 69 59 59 60 53 45 47 47 34 27 25 10 4 356 347 145 152 155 139 135 144 150 145 131 121 109 115 113 103 97 91 95 86 93 98
58 58 67 84 64 62 60 52 61 56 61 65 61 49 44 47 45 35 31 16 358 347 355 73 116 116 129 118 127 118 112 113 105 109 114 119 116 94 80 88 82 69 61
64 62 62 63 61 58 61 64 57 55 60 63 62 58 44 44 45 51 36 14 354 356 14 12 137 132 136 126 118 124 115 108 109 116 109 112 116 108 82 82 80 59 15
63 71 70 63 58 52 47 69 77 67 64 61 55 54 43 47 46 61 54 20 14 12 21 20 9 120 126 127 163 158 126 119 141 124 114 115 119 119 126 114 89 19 321
65 72 74 72 58 44 39 51 68 74 65 62 56 48 51 40 40 55 60 45 34 36 30 25 16 16 100 133 156 159 179 147 129 147 155 135 131 133 124 126 140 265 308
69 67 64 68 57 49 42 42 52 53 44 47 49 47 55 54 42 49 41 57 56 67 61 41 25 22 36 68 93 58 313 158 163 192 166 146 152 142 126 129 148 158 278
66 60 64 60 58 53 27 4 32 109 98 95 56 41 36 48 53 49 67 82 92 85 61 50 43 56 20 69 114 127 249 318 316 248 184 166 177 151 151 161 176 190 196
57 55 57 59 52 42 25 39 30 46 93 46 29 29 19 36 45 35 58 80 102 119 138 146 91 154 163 1 74 118 144 209 287 286 251 202 195 186 200 200 210 225 211
75 63 58 62 58 43 29 33 63 99 136 223 211 197 11 59 78 36 65 110 121 165 181 198 165 187 141 176 311 5 114 135 152 274 296 274 263 229 226 229 224 221 205
82 79 62 48 56 57 40 12 360 150 231 312 164 174 235 298 71 40 187 146 178 233 208 190 199 202 178 183 173 263 293 321 178 167 249 268 278 260 245 234 221 215 212
73 69 62 45 33 43 34 7 345 319 298 312 298 244 259 261 240 264 266 214 216 240 239 217 206 219 218 217 223 198 179 204 212 193 233 254 263 264 260 246 230 219 225